Wind_Speed
9 9 10 11 11 11 11 11 11 11 11 11 11 12 12 12 11 11 11 11 11 12 12 12 12 11 12 12 12 11 11 11 11 11 11 12 13 14 14 14 14 14 15
10 10 10 10 11 11 11 11 11 11 12 12 12 12 12 12 11 11 11 10 10 11 11 11 12 11 11 11 11 11 10 11 11 11 11 11 12 12 13 13 13 14 15
10 10 10 11 11 11 12 11 11 12 12 12 12 12 12 12 12 11 11 10 10 10 11 11 12 11 11 11 11 10 10 9 9 9 10 10 11 11 12 13 14 14 15
10 11 11 11 12 11 11 12 11 11 11 11 11 11 11 11 11 11 11 11 11 11 11 11 11 10 10 10 10 9 9 9 9 10 10 10 10 11 12 13 14 14 14
10 11 11 11 11 12 11 11 11 11 12 12 12 11 12 11 11 11 10 11 11 11 11 11 11 10 10 10 10 10 10 10 9 9 10 11 11 12 13 13 14 14 15
10 10 11 11 11 11 10 11 11 11 11 12 12 12 11 12 12 11 11 11 11 11 11 11 11 10 10 10 11 11 10 10 10 10 10 11 12 13 14 14 13 13 14
11 10 11 11 11 11 11 11 11 11 11 12 12 12 12 12 12 11 11 12 12 11 11 11 11 10 10 11 11 11 11 11 11 11 12 13 13 13 13 13 12 12 13
11 11 11 11 11 11 11 11 11 11 11 11 12 11 11 12 12 12 11 12 12 12 11 11 11 11 11 11 11 11 11 11 11 11 11 12 12 12 12 12 12 12 12
11 11 11 12 12 12 12 12 12 12 12 12 12 12 12 11 11 11 11 12 12 12 12 12 12 11 11 11 11 11 11 11 10 10 11 11 11 11 11 12 12 12 12
12 11 12 12 11 12 12 12 13 13 13 13 13 13 12 12 12 11 11 12 11 12 12 13 13 13 13 12 12 12 12 12 11 11 11 11 11 11 11 11 11 12 12
12 12 12 12 11 12 12 12 12 13 13 13 13 13 12 13 13 13 12 12 12 13 13 13 14 14 14 13 13 13 13 13 13 12 11 11 11 11 11 11 11 11 11
13 13 13 13 13 13 13 12 12 13 13 13 13 13 13 14 14 14 14 14 14 14 14 14 14 14 14 14 14 14 14 13 13 13 12 12 12 12 12 11 11 11 11
14 15 15 14 14 14 14 14 14 14 14 14 14 14 14 14 15 15 15 15 15 14 15 15 15 15 15 15 15 15 15 15 14 14 13 13 13 13 12 12 12 12 12
15 16 15 15 15 16 16 15 16 16 16 16 16 16 16 16 16 16 16 16 16 16 16 16 17 16 16 17 16 16 16 16 16 15 14 14 14 14 14 13 13 13 13
16 16 16 16 16 16 17 17 16 17 17 17 17 17 17 17 18 18 17 17 17 17 17 17 17 17 18 17 18 17 16 16 16 15 15 15 15 15 15 15 15 15 14
17 17 17 17 17 17 17 17 18 18 18 18 18 18 18 18 18 18 18 19 19 18 18 17 18 19 19 19 18 17 17 17 16 16 16 17 16 16 17 17 16 16 16
19 18 18 18 18 18 19 19 19 18 19 19 19 20 20 20 20 19 19 19 20 19 19 19 20 20 19 19 19 18 18 18 18 18 18 18 18 18 18 18 18 18 17
18 18 18 19 19 19 19 19 19 19 19 18 19 20 20 21 21 21 21 20 20 21 20 20 20 20 20 20 20 20 20 19 19 19 19 19 20 20 20 19 19 19 19
19 19 19 19 20 20 20 21 20 20 20 19 19 20 21 21 21 21 22 22 21 21 21 21 21 21 21 21 21 21 20 20 19 19 19 19 19 19 19 19 19 19 19
20 20 19 19 19 20 20 21 22 21 21 21 21 21 21 22 22 22 23 23 23 22 22 22 22 22 22 22 22 21 20 20 20 20 19 19 20 20 20 20 20 20 20
20 19 20 20 19 20 20 21 22 22 22 22 22 22 22 22 23 22 23 23 23 22 22 22 22 22 23 23 22 22 21 21 20 20 20 20 21 21 21 21 21 21 21
21 22 22 21 21 20 20 21 22 22 23 23 22 22 23 23 23 23 23 23 23 23 23 23 23 23 23 23 23 23 22 22 22 22 22 22 22 22 22 22 21 21 22
21 22 23 23 22 22 22 22 23 23 23 23 23 24 24 24 23 23 23 24 24 24 23 23 23 23 23 23 23 23 23 23 23 23 23 23 23 22 22 22 22 22 22
22 23 23 23 23 23 23 23 24 24 24 24 24 24 25 25 25 25 25 25 25 25 24 24 24 24 25 24 24 24 24 24 23 23 24 23 23 23 23 23 23 23 23
23 23 23 23 23 23 23 24 24 24 25 25 25 25 25 25 25 26 26 26 26 25 25 25 25 26 26 25 25 25 25 25 25 25 25 25 25 24 24 25 25 25 24
25 24 24 24 23 23 23 24 25 25 26 26 26 25 25 26 26 26 26 26 26 26 26 26 26 26 26 26 25 25 25 25 26 26 26 26 26 25 24 25 25 25 25
Wind_Direction
269 265 261 260 261 262 264 259 257 257 257 251 248 246 247 247 248 252 251 254 254 252 252 253 254 259 262 263 266 269 269 267 262 257 251 244 240 239 242 245 247 250 252
271 267 265 261 261 261 261 259 257 257 255 253 252 247 244 246 249 252 254 252 253 252 251 253 253 257 261 263 264 267 266 264 261 251 243 239 239 239 242 244 247 250 253
273 269 266 262 261 260 259 258 255 256 253 251 250 247 246 248 250 253 254 252 253 252 252 253 254 255 259 261 263 266 262 258 257 253 248 242 241 240 243 245 246 249 253
276 269 266 262 261 259 258 259 256 255 255 253 248 246 246 247 247 251 251 254 256 257 255 252 252 256 259 261 263 264 262 258 255 252 249 248 245 245 245 248 248 251 254
277 272 269 263 259 258 258 259 257 258 256 253 252 251 249 251 253 254 253 257 258 257 253 251 250 251 256 258 257 258 257 255 253 251 248 247 248 248 248 249 251 254 255
281 276 270 264 258 256 258 261 260 259 257 253 253 252 249 252 256 255 254 256 257 256 252 250 250 249 250 254 254 253 256 256 255 253 251 252 254 254 254 256 255 256 258
281 276 271 264 258 255 258 261 261 259 257 256 254 250 252 254 253 254 255 254 254 253 250 249 249 248 251 251 247 248 251 255 258 256 256 255 256 257 258 262 262 261 262
280 272 268 265 260 258 260 261 262 261 257 256 255 254 253 252 253 253 252 254 253 251 253 253 251 250 255 250 246 250 252 254 252 255 257 257 259 260 260 262 260 261 262
284 276 267 264 263 261 261 261 262 261 257 256 256 256 252 248 249 251 253 256 252 252 255 256 253 252 248 249 248 250 255 259 262 263 261 260 260 256 255 256 257 261 264
284 279 271 266 263 261 260 261 260 260 257 258 257 255 251 248 247 250 253 256 255 254 255 256 254 251 250 251 252 253 256 263 262 265 262 262 260 256 256 257 259 262 263
280 277 269 264 263 262 261 262 262 260 260 256 254 253 251 248 249 250 254 256 259 257 256 256 254 252 251 253 255 256 258 262 266 264 260 259 260 259 259 259 260 263 266
278 276 274 267 265 264 261 260 261 261 262 259 256 254 252 250 251 254 255 256 258 258 257 257 257 253 252 254 256 256 258 261 265 261 258 260 259 260 261 260 263 266 269
276 275 273 270 266 265 264 262 261 261 262 262 258 255 255 252 253 254 255 256 257 257 258 259 258 255 254 255 256 257 257 260 262 259 259 259 259 259 260 260 264 266 269
276 273 272 271 268 266 264 264 263 260 260 261 258 255 255 253 253 255 257 258 259 259 259 259 257 254 253 255 256 258 259 259 259 258 257 258 259 260 260 261 264 266 268
275 272 270 269 268 266 265 264 265 261 258 259 258 256 255 255 255 256 257 257 259 260 260 259 257 253 254 255 258 258 257 258 259 257 256 257 257 258 260 261 263 265 268
274 272 269 268 267 268 267 266 264 263 260 259 259 258 257 258 259 257 257 257 256 258 259 258 258 257 255 257 257 257 256 258 258 259 258 259 257 259 260 261 262 264 267
276 274 271 268 267 268 268 267 265 263 260 259 260 259 259 259 260 258 257 257 256 256 257 256 258 258 256 254 256 257 257 259 259 259 260 258 257 258 260 261 263 264 266
278 277 275 272 270 269 268 266 264 262 261 260 263 261 260 262 260 258 257 258 257 256 255 256 257 256 255 253 254 256 257 258 260 260 261 261 260 259 260 262 264 264 266
276 276 276 275 271 269 267 264 263 262 264 264 265 263 261 261 260 258 257 258 257 256 255 255 256 256 255 254 253 254 256 257 259 260 261 262 260 260 261 262 263 263 265
275 276 277 276 273 268 266 263 262 262 264 265 265 264 263 262 261 260 259 259 256 255 255 255 255 255 255 255 254 255 255 256 258 259 261 264 264 263 264 265 263 263 265
274 275 276 275 273 270 267 265 264 263 264 265 265 263 262 264 263 262 262 260 258 256 255 256 256 256 257 255 255 256 254 254 257 259 261 264 266 266 266 265 264 264 265
274 274 275 275 273 269 266 266 266 263 263 263 264 263 263 264 263 262 263 259 258 258 257 256 256 256 256 256 256 256 255 255 256 258 260 264 266 265 266 266 265 265 266
275 275 274 273 271 268 267 267 267 266 265 263 263 263 263 263 262 261 260 258 257 258 257 257 257 256 256 258 257 256 255 256 257 259 260 262 264 264 264 265 266 266 267
276 276 273 273 270 268 268 267 266 266 266 264 263 262 262 261 260 259 258 258 258 256 256 256 255 255 256 256 256 256 256 257 258 259 260 261 263 263 264 265 267 268 268
275 275 275 273 270 268 268 268 267 267 266 266 265 264 261 259 258 258 258 258 257 257 256 255 255 254 255 255 255 256 256 256 256 258 260 262 263 263 264 265 266 267 267
277 275 273 272 270 268 268 268 268 267 267 266 265 263 262 260 259 259 259 258 257 258 257 256 255 253 253 254 255 256 256 257 258 258 260 262 263 263 264 264 265 265 266
Height
5845 5844 5844 5844 5843 5843 5843 5843 5843 5843 5843 5842 5842 5842 5843 5843 5843 5842 5842 5842 5842 5842 5843 5843 5843 5844 5844 5843 5843 5842 5841 5840 5839 5839 5838 5839 5841 5842 5844 5846 5847 5848 5849
5842 5842 5841 5841 5841 5841 5841 5841 5840 5840 5840 5840 5840 5840 5840 5840 5840 5840 5840 5840 5840 5840 5840 5841 5841 5841 5841 5841 5841 5840 5840 5839 5838 5837 5838 5839 5840 5841 5842 5844 5844 5845 5846
5840 5839 5839 5838 5838 5838 5838 5838 5837 5837 5837 5837 5837 5837 5837 5838 5838 5838 5838 5837 5837 5837 5838 5838 5838 5838 5839 5838 5838 5838 5838 5837 5837 5837 5837 5838 5838 5839 5840 5841 5842 5842 5843
5837 5836 5836 5836 5835 5835 5835 5835 5834 5834 5834 5834 5835 5835 5835 5835 5835 5835 5835 5834 5834 5835 5835 5835 5836 5836 5836 5836 5836 5836 5836 5836 5836 5836 5836 5837 5837 5837 5838 5838 5839 5839 5840
5834 5834 5833 5833 5832 5832 5832 5832 5832 5831 5832 5832 5832 5832 5833 5833 5833 5833 5833 5832 5832 5832 5832 5833 5833 5834 5834 5834 5834 5834 5834 5834 5834 5834 5835 5835 5835 5835 5836 5836 5836 5837 5837
5832 5831 5830 5830 5830 5830 5830 5829 5829 5829 5829 5829 5829 5830 5830 5830 5830 5830 5830 5830 5830 5830 5830 5831 5831 5831 5831 5831 5832 5832 5832 5832 5832 5832 5832 5832 5832 5833 5833 5833 5833 5834 5834
5829 5828 5828 5827 5827 5827 5827 5827 5827 5826 5826 5826 5827 5827 5827 5827 5828 5828 5828 5828 5828 5828 5828 5828 5829 5829 5829 5829 5829 5829 5830 5830 5830 5830 5830 5830 5830 5830 5830 5830 5830 5831 5831
5826 5825 5825 5824 5824 5824 5824 5824 5824 5824 5824 5824 5824 5824 5824 5825 5825 5825 5825 5825 5825 5825 5826 5826 5826 5826 5827 5826 5826 5827 5827 5827 5827 5827 5827 5827 5827 5827 5827 5828 5828 5828 5828
5823 5822 5822 5821 5821 5821 5821 5821 5821 5821 5821 5821 5821 5821 5821 5822 5822 5823 5823 5823 5823 5823 5823 5824 5824 5824 5824 5824 5824 5825 5825 5825 5825 5825 5825 5824 5825 5825 5825 5825 5825 5825 5825
5820 5819 5818 5818 5818 5818 5818 5818 5818 5818 5818 5818 5818 5818 5818 5819 5819 5820 5820 5820 5820 5820 5821 5821 5821 5822 5822 5822 5822 5822 5823 5822 5822 5822 5822 5822 5822 5822 5822 5822 5822 5822 5822
5817 5816 5815 5815 5815 5815 5815 5815 5814 5814 5814 5814 5814 5815 5815 5816 5816 5817 5817 5817 5817 5818 5818 5818 5818 5818 5819 5819 5819 5819 5820 5820 5819 5819 5819 5820 5820 5820 5820 5820 5820 5820 5819
5813 5812 5811 5811 5812 5812 5811 5811 5811 5811 5811 5811 5811 5811 5812 5812 5813 5813 5814 5814 5814 5814 5814 5815 5815 5815 5815 5816 5816 5816 5816 5817 5817 5816 5817 5817 5817 5817 5817 5817 5817 5817 5817
5809 5809 5808 5808 5808 5808 5808 5808 5808 5807 5807 5807 5807 5808 5808 5808 5809 5809 5810 5810 5810 5810 5811 5811 5811 5811 5812 5812 5812 5813 5813 5813 5813 5814 5814 5814 5814 5814 5814 5814 5814 5814 5814
5805 5804 5804 5804 5803 5803 5803 5803 5803 5803 5803 5803 5803 5803 5804 5804 5805 5805 5806 5806 5806 5806 5806 5807 5807 5807 5808 5808 5808 5809 5809 5809 5810 5810 5810 5810 5810 5811 5811 5811 5811 5811 5811
5801 5800 5800 5799 5799 5798 5798 5798 5798 5798 5798 5799 5799 5799 5799 5799 5800 5800 5801 5801 5802 5802 5802 5802 5803 5803 5803 5804 5804 5805 5805 5806 5806 5806 5806 5806 5807 5807 5807 5808 5808 5808 5807
5796 5795 5795 5794 5794 5793 5793 5793 5793 5793 5793 5793 5793 5794 5794 5794 5795 5795 5796 5796 5797 5797 5797 5798 5798 5798 5799 5799 5800 5800 5801 5801 5802 5802 5802 5803 5803 5803 5803 5804 5804 5804 5804
5791 5790 5789 5789 5789 5788 5788 5787 5787 5787 5787 5788 5788 5788 5789 5789 5789 5790 5790 5791 5791 5792 5792 5793 5793 5793 5794 5795 5795 5796 5796 5797 5797 5797 5798 5798 5798 5799 5799 5799 5799 5799 5799
5785 5784 5783 5783 5782 5782 5782 5781 5781 5781 5781 5782 5782 5782 5783 5783 5783 5784 5784 5785 5786 5786 5787 5787 5787 5788 5789 5789 5790 5791 5791 5792 5792 5792 5793 5793 5793 5794 5794 5794 5794 5794 5794
5779 5778 5777 5777 5776 5776 5776 5775 5775 5776 5776 5776 5776 5776 5776 5777 5777 5777 5778 5779 5780 5780 5781 5781 5782 5782 5783 5784 5784 5785 5786 5786 5787 5787 5788 5788 5788 5788 5789 5789 5789 5789 5789
5773 5772 5771 5771 5770 5770 5769 5769 5769 5770 5770 5770 5770 5770 5770 5770 5770 5771 5771 5772 5773 5774 5774 5775 5776 5776 5777 5778 5778 5779 5780 5781 5781 5782 5782 5783 5783 5783 5783 5784 5784 5784 5784
5767 5766 5765 5764 5764 5763 5763 5763 5763 5763 5763 5764 5763 5763 5763 5764 5764 5764 5765 5765 5766 5766 5767 5768 5769 5770 5771 5771 5772 5773 5774 5775 5775 5776 5776 5777 5777 5777 5777 5777 5778 5778 5778
5760 5759 5758 5757 5757 5757 5756 5756 5756 5757 5757 5757 5757 5756 5757 5757 5757 5758 5758 5758 5759 5759 5760 5761 5762 5763 5764 5765 5766 5767 5768 5768 5769 5770 5770 5771 5771 5771 5771 5771 5771 5771 5771
5753 5752 5751 5750 5750 5750 5749 5749 5749 5749 5749 5749 5749 5749 5749 5750 5750 5751 5751 5751 5752 5752 5753 5754 5755 5756 5757 5758 5759 5760 5761 5762 5763 5763 5764 5764 5764 5764 5764 5764 5764 5764 5764
5746 5745 5744 5743 5742 5742 5742 5742 5741 5741 5741 5742 5742 5742 5742 5742 5743 5743 5743 5744 5744 5745 5746 5747 5748 5749 5750 5751 5752 5753 5753 5755 5755 5756 5756 5757 5757 5757 5756 5757 5757 5757 5757
5739 5738 5736 5735 5735 5735 5734 5734 5734 5734 5734 5734 5734 5734 5734 5734 5735 5735 5736 5736 5737 5737 5738 5739 5740 5741 5742 5743 5744 5745 5746 5747 5748 5748 5748 5749 5749 5749 5749 5749 5749 5749 5749
5731 5730 5729 5728 5727 5727 5727 5726 5726 5726 5726 5725 5725 5725 5726 5726 5726 5726 5727 5728 5729 5729 5730 5731 5732 5733 5734 5735 5736 5737 5738 5739 5740 5740 5740 5741 5741 5741 5741 5741 5741 5741 5741